owner,sensor,date,latitude,longitude,sea_surface_height_above_sea_level,qcFlag 
COMPS,ioos:station:USF.COMPS:ARP:1,2015-08-01T00:00:00Z,28.4330,-82.6670,-0.194,1111122 
COMPS,ioos:station:USF.COMPS:ARP:1,2015-08-01T00:06:00Z,28.4330,-82.6670,-0.207,1111122 
COMPS,ioos:station:USF.COMPS:ARP:1,2015-08-01T00:12:00Z,28.4330,-82.6670,-0.22,1111122 
COMPS,ioos:station:USF.COMPS:ARP:1,2015-08-01T00:18:00Z,28.4330,-82.6670,-0.232,1111122 
COMPS,ioos:station:USF.COMPS:ARP:1,2015-08-01T00:24:00Z,28.4330,-82.6670,-0.245,1111122 
COMPS,ioos:station:USF.COMPS:ARP:1,2015-08-01T00:30:00Z,28.4330,-82.6670,-0.258,1111122 
COMPS,ioos:station:USF.COMPS:ARP:1,2015-08-01T00:36:00Z,28.4330,-82.6670,-0.269,1111122 
COMPS,ioos:station:USF.COMPS:ARP:1,2015-08-01T00:42:00Z,28.4330,-82.6670,-0.28,1111122 
COMPS,ioos:station:USF.COMPS:ARP:1,2015-08-01T00:48:00Z,28.4330,-82.6670,-0.291,1111122 
COMPS,ioos:station:USF.COMPS:ARP:1,2015-08-01T00:54:00Z,28.4330,-82.6670,-0.3,1111122 
COMPS,ioos:station:USF.COMPS:ARP:1,2015-08-01T01:00:00Z,28.4330,-82.6670,-0.308,1111122 
COMPS,ioos:station:USF.COMPS:ARP:1,2015-08-01T01:06:00Z,28.4330,-82.6670,-0.317,1111122 
COMPS,ioos:station:USF.COMPS:ARP:1,2015-08-01T01:12:00Z,28.4330,-82.6670,-0.324,1111122 
COMPS,ioos:station:USF.COMPS:ARP:1,2015-08-01T01:18:00Z,28.4330,-82.6670,-0.329,1111122 
COMPS,ioos:station:USF.COMPS:ARP:1,2015-08-01T01:24:00Z,28.4330,-82.6670,-0.334,1111122 
COMPS,ioos:station:USF.COMPS:ARP:1,2015-08-01T01:30:00Z,28.4330,-82.6670,-0.34,1111122 
COMPS,ioos:station:USF.COMPS:ARP:1,2015-08-01T01:36:00Z,28.4330,-82.6670,-0.345,1111122 
COMPS,ioos:station:USF.COMPS:ARP:1,2015-08-01T01:42:00Z,28.4330,-82.6670,-0.347,1111122 
COMPS,ioos:station:USF.COMPS:ARP:1,2015-08-01T01:48:00Z,28.4330,-82.6670,-0.347,1111122 
COMPS,ioos:station:USF.COMPS:ARP:1,2015-08-01T01:54:00Z,28.4330,-82.6670,-0.349,1111122 
COMPS,ioos:station:USF.COMPS:ARP:1,2015-08-01T02:00:00Z,28.4330,-82.6670,-0.345,1111122 
COMPS,ioos:station:USF.COMPS:ARP:1,2015-08-01T02:06:00Z,28.4330,-82.6670,-0.341,1111122 
COMPS,ioos:station:USF.COMPS:ARP:1,2015-08-01T02:12:00Z,28.4330,-82.6670,-0.335,1111122 
COMPS,ioos:station:USF.COMPS:ARP:1,2015-08-01T02:18:00Z,28.4330,-82.6670,-0.328,1111122 
COMPS,ioos:station:USF.COMPS:ARP:1,2015-08-01T02:24:00Z,28.4330,-82.6670,-0.32,1111122 
COMPS,ioos:station:USF.COMPS:ARP:1,2015-08-01T02:30:00Z,28.4330,-82.6670,-0.311,1111122 
COMPS,ioos:station:USF.COMPS:ARP:1,2015-08-01T02:36:00Z,28.4330,-82.6670,-0.305,1111122 
COMPS,ioos:station:USF.COMPS:ARP:1,2015-08-01T02:42:00Z,28.4330,-82.6670,-0.297,1111122 
COMPS,ioos:station:USF.COMPS:ARP:1,2015-08-01T02:48:00Z,28.4330,-82.6670,-0.288,1111122 
COMPS,ioos:station:USF.COMPS:ARP:1,2015-08-01T02:54:00Z,28.4330,-82.6670,-0.28,1111122 
COMPS,ioos:station:USF.COMPS:ARP:1,2015-08-01T03:00:00Z,28.4330,-82.6670,-0.271,1111122 
COMPS,ioos:station:USF.COMPS:ARP:1,2015-08-01T03:06:00Z,28.4330,-82.6670,-0.26,1111122 
COMPS,ioos:station:USF.COMPS:ARP:1,2015-08-01T03:12:00Z,28.4330,-82.6670,-0.249,1111122 
COMPS,ioos:station:USF.COMPS:ARP:1,2015-08-01T03:18:00Z,28.4330,-82.6670,-0.236,1111122 
COMPS,ioos:station:USF.COMPS:ARP:1,2015-08-01T03:24:00Z,28.4330,-82.6670,-0.222,1111122 
COMPS,ioos:station:USF.COMPS:ARP:1,2015-08-01T03:30:00Z,28.4330,-82.6670,-0.206,1111122 
COMPS,ioos:station:USF.COMPS:ARP:1,2015-08-01T03:36:00Z,28.4330,-82.6670,-0.188,1111122 
COMPS,ioos:station:USF.COMPS:ARP:1,2015-08-01T03:42:00Z,28.4330,-82.6670,-0.167,1111122 
COMPS,ioos:station:USF.COMPS:ARP:1,2015-08-01T03:48:00Z,28.4330,-82.6670,-0.146,1111122 
COMPS,ioos:station:USF.COMPS:ARP:1,2015-08-01T03:54:00Z,28.4330,-82.6670,-0.124,1111122 
COMPS,ioos:station:USF.COMPS:ARP:1,2015-08-01T04:00:00Z,28.4330,-82.6670,-0.102,1111122 
COMPS,ioos:station:USF.COMPS:ARP:1,2015-08-01T04:06:00Z,28.4330,-82.6670,-0.078,1111122 
COMPS,ioos:station:USF.COMPS:ARP:1,2015-08-01T04:12:00Z,28.4330,-82.6670,-0.051,1111122 
COMPS,ioos:station:USF.COMPS:ARP:1,2015-08-01T04:18:00Z,28.4330,-82.6670,-0.027,1111122 
COMPS,ioos:station:USF.COMPS:ARP:1,2015-08-01T04:24:00Z,28.4330,-82.6670,-0.002,1111122 
COMPS,ioos:station:USF.COMPS:ARP:1,2015-08-01T04:30:00Z,28.4330,-82.6670,0.023,1111122 
COMPS,ioos:station:USF.COMPS:ARP:1,2015-08-01T04:36:00Z,28.4330,-82.6670,0.051,1111122 
COMPS,ioos:station:USF.COMPS:ARP:1,2015-08-01T04:42:00Z,28.4330,-82.6670,0.078,1111122 
COMPS,ioos:station:USF.COMPS:ARP:1,2015-08-01T04:48:00Z,28.4330,-82.6670,0.103,1111122 
COMPS,ioos:station:USF.COMPS:ARP:1,2015-08-01T04:54:00Z,28.4330,-82.6670,0.13,1111122 
COMPS,ioos:station:USF.COMPS:ARP:1,2015-08-01T05:00:00Z,28.4330,-82.6670,0.159,1111122 
COMPS,ioos:station:USF.COMPS:ARP:1,2015-08-01T05:06:00Z,28.4330,-82.6670,0.186,1111122 
COMPS,ioos:station:USF.COMPS:ARP:1,2015-08-01T05:12:00Z,28.4330,-82.6670,0.212,1111122 
COMPS,ioos:station:USF.COMPS:ARP:1,2015-08-01T05:18:00Z,28.4330,-82.6670,0.238,1111122 
COMPS,ioos:station:USF.COMPS:ARP:1,2015-08-01T05:24:00Z,28.4330,-82.6670,0.265,1111122 
COMPS,ioos:station:USF.COMPS:ARP:1,2015-08-01T05:30:00Z,28.4330,-82.6670,0.291,1111122 
COMPS,ioos:station:USF.COMPS:ARP:1,2015-08-01T05:36:00Z,28.4330,-82.6670,0.317,1111122 
COMPS,ioos:station:USF.COMPS:ARP:1,2015-08-01T05:42:00Z,28.4330,-82.6670,0.341,1111122 
COMPS,ioos:station:USF.COMPS:ARP:1,2015-08-01T05:48:00Z,28.4330,-82.6670,0.365,1111122 
COMPS,ioos:station:USF.COMPS:ARP:1,2015-08-01T05:54:00Z,28.4330,-82.6670,0.389,1111122 
COMPS,ioos:station:USF.COMPS:ARP:1,2015-08-01T06:00:00Z,28.4330,-82.6670,0.41,1111122 
COMPS,ioos:station:USF.COMPS:ARP:1,2015-08-01T06:06:00Z,28.4330,-82.6670,0.436,1111122 
COMPS,ioos:station:USF.COMPS:ARP:1,2015-08-01T06:12:00Z,28.4330,-82.6670,0.458,1111122 
COMPS,ioos:station:USF.COMPS:ARP:1,2015-08-01T06:18:00Z,28.4330,-82.6670,0.476,1111122 
COMPS,ioos:station:USF.COMPS:ARP:1,2015-08-01T06:24:00Z,28.4330,-82.6670,0.498,1111122 
COMPS,ioos:station:USF.COMPS:ARP:1,2015-08-01T06:30:00Z,28.4330,-82.6670,0.522,1111122 
COMPS,ioos:station:USF.COMPS:ARP:1,2015-08-01T06:36:00Z,28.4330,-82.6670,0.543,1111122 
COMPS,ioos:station:USF.COMPS:ARP:1,2015-08-01T06:42:00Z,28.4330,-82.6670,0.561,1111122 
COMPS,ioos:station:USF.COMPS:ARP:1,2015-08-01T06:48:00Z,28.4330,-82.6670,0.58,1111122 
COMPS,ioos:station:USF.COMPS:ARP:1,2015-08-01T06:54:00Z,28.4330,-82.6670,0.595,1111122 
COMPS,ioos:station:USF.COMPS:ARP:1,2015-08-01T07:00:00Z,28.4330,-82.6670,0.605,1111122 
COMPS,ioos:station:USF.COMPS:ARP:1,2015-08-01T07:06:00Z,28.4330,-82.6670,0.614,1111122 
COMPS,ioos:station:USF.COMPS:ARP:1,2015-08-01T07:12:00Z,28.4330,-82.6670,0.614,1111122 
COMPS,ioos:station:USF.COMPS:ARP:1,2015-08-01T07:18:00Z,28.4330,-82.6670,0.616,1111122 
COMPS,ioos:station:USF.COMPS:ARP:1,2015-08-01T07:24:00Z,28.4330,-82.6670,0.613,1111122 
COMPS,ioos:station:USF.COMPS:ARP:1,2015-08-01T07:30:00Z,28.4330,-82.6670,0.61,1111122 
COMPS,ioos:station:USF.COMPS:ARP:1,2015-08-01T07:36:00Z,28.4330,-82.6670,0.609,1111122 
COMPS,ioos:station:USF.COMPS:ARP:1,2015-08-01T07:42:00Z,28.4330,-82.6670,0.608,1111122 
COMPS,ioos:station:USF.COMPS:ARP:1,2015-08-01T07:48:00Z,28.4330,-82.6670,0.593,1111122 
COMPS,ioos:station:USF.COMPS:ARP:1,2015-08-01T07:54:00Z,28.4330,-82.6670,0.577,1111122 
COMPS,ioos:station:USF.COMPS:ARP:1,2015-08-01T08:00:00Z,28.4330,-82.6670,0.562,1111122 
COMPS,ioos:station:USF.COMPS:ARP:1,2015-08-01T08:06:00Z,28.4330,-82.6670,0.548,1111122 
COMPS,ioos:station:USF.COMPS:ARP:1,2015-08-01T08:12:00Z,28.4330,-82.6670,0.529,1111122 
COMPS,ioos:station:USF.COMPS:ARP:1,2015-08-01T08:18:00Z,28.4330,-82.6670,0.512,1111122 
COMPS,ioos:station:USF.COMPS:ARP:1,2015-08-01T08:24:00Z,28.4330,-82.6670,0.504,1111122 
COMPS,ioos:station:USF.COMPS:ARP:1,2015-08-01T08:30:00Z,28.4330,-82.6670,0.496,1111122 
COMPS,ioos:station:USF.COMPS:ARP:1,2015-08-01T08:36:00Z,28.4330,-82.6670,0.507,1111122 
COMPS,ioos:station:USF.COMPS:ARP:1,2015-08-01T08:42:00Z,28.4330,-82.6670,0.54,1111122 
COMPS,ioos:station:USF.COMPS:ARP:1,2015-08-01T08:48:00Z,28.4330,-82.6670,0.539,1111122 
COMPS,ioos:station:USF.COMPS:ARP:1,2015-08-01T08:54:00Z,28.4330,-82.6670,0.562,1111122 
COMPS,ioos:station:USF.COMPS:ARP:1,2015-08-01T09:00:00Z,28.4330,-82.6670,0.585,1111122 
COMPS,ioos:station:USF.COMPS:ARP:1,2015-08-01T09:06:00Z,28.4330,-82.6670,0.587,1111122 
COMPS,ioos:station:USF.COMPS:ARP:1,2015-08-01T09:12:00Z,28.4330,-82.6670,0.582,1111122 
COMPS,ioos:station:USF.COMPS:ARP:1,2015-08-01T09:18:00Z,28.4330,-82.6670,0.559,1111122 
COMPS,ioos:station:USF.COMPS:ARP:1,2015-08-01T09:24:00Z,28.4330,-82.6670,0.528,1111122 
COMPS,ioos:station:USF.COMPS:ARP:1,2015-08-01T09:30:00Z,28.4330,-82.6670,0.496,1111122 
COMPS,ioos:station:USF.COMPS:ARP:1,2015-08-01T09:36:00Z,28.4330,-82.6670,0.468,1111122 
COMPS,ioos:station:USF.COMPS:ARP:1,2015-08-01T09:42:00Z,28.4330,-82.6670,0.437,1111122 
COMPS,ioos:station:USF.COMPS:ARP:1,2015-08-01T09:48:00Z,28.4330,-82.6670,0.407,1111122 
COMPS,ioos:station:USF.COMPS:ARP:1,2015-08-01T09:54:00Z,28.4330,-82.6670,0.381,1111122 
COMPS,ioos:station:USF.COMPS:ARP:1,2015-08-01T10:00:00Z,28.4330,-82.6670,0.359,1111122 
COMPS,ioos:station:USF.COMPS:ARP:1,2015-08-01T10:06:00Z,28.4330,-82.6670,0.339,1111122 
COMPS,ioos:station:USF.COMPS:ARP:1,2015-08-01T10:12:00Z,28.4330,-82.6670,0.314,1111122 
COMPS,ioos:station:USF.COMPS:ARP:1,2015-08-01T10:18:00Z,28.4330,-82.6670,0.294,1111122 
COMPS,ioos:station:USF.COMPS:ARP:1,2015-08-01T10:24:00Z,28.4330,-82.6670,0.274,1111122 
COMPS,ioos:station:USF.COMPS:ARP:1,2015-08-01T10:30:00Z,28.4330,-82.6670,0.25,1111122 
COMPS,ioos:station:USF.COMPS:ARP:1,2015-08-01T10:36:00Z,28.4330,-82.6670,0.231,1111122 
COMPS,ioos:station:USF.COMPS:ARP:1,2015-08-01T10:42:00Z,28.4330,-82.6670,0.209,1111122 
COMPS,ioos:station:USF.COMPS:ARP:1,2015-08-01T10:48:00Z,28.4330,-82.6670,0.187,1111122 
COMPS,ioos:station:USF.COMPS:ARP:1,2015-08-01T10:54:00Z,28.4330,-82.6670,0.17,1111122 
COMPS,ioos:station:USF.COMPS:ARP:1,2015-08-01T11:00:00Z,28.4330,-82.6670,0.152,1111122 
COMPS,ioos:station:USF.COMPS:ARP:1,2015-08-01T11:06:00Z,28.4330,-82.6670,0.132,1111122 
COMPS,ioos:station:USF.COMPS:ARP:1,2015-08-01T11:12:00Z,28.4330,-82.6670,0.113,1111122 
COMPS,ioos:station:USF.COMPS:ARP:1,2015-08-01T11:18:00Z,28.4330,-82.6670,0.096,1111122 
COMPS,ioos:station:USF.COMPS:ARP:1,2015-08-01T11:24:00Z,28.4330,-82.6670,0.077,1111122 
COMPS,ioos:station:USF.COMPS:ARP:1,2015-08-01T11:30:00Z,28.4330,-82.6670,0.06,1111122 
COMPS,ioos:station:USF.COMPS:ARP:1,2015-08-01T11:36:00Z,28.4330,-82.6670,0.04,1111122 
COMPS,ioos:station:USF.COMPS:ARP:1,2015-08-01T11:42:00Z,28.4330,-82.6670,0.021,1111122 
COMPS,ioos:station:USF.COMPS:ARP:1,2015-08-01T11:48:00Z,28.4330,-82.6670,0.002,1111122 
COMPS,ioos:station:USF.COMPS:ARP:1,2015-08-01T11:54:00Z,28.4330,-82.6670,-0.015,1111122 
COMPS,ioos:station:USF.COMPS:ARP:1,2015-08-01T12:00:00Z,28.4330,-82.6670,-0.03,1111122 
COMPS,ioos:station:USF.COMPS:ARP:1,2015-08-01T12:06:00Z,28.4330,-82.6670,-0.047,1111122 
COMPS,ioos:station:USF.COMPS:ARP:1,2015-08-01T12:12:00Z,28.4330,-82.6670,-0.063,1111122 
COMPS,ioos:station:USF.COMPS:ARP:1,2015-08-01T12:18:00Z,28.4330,-82.6670,-0.079,1111122 
COMPS,ioos:station:USF.COMPS:ARP:1,2015-08-01T12:24:00Z,28.4330,-82.6670,-0.093,1111122 
COMPS,ioos:station:USF.COMPS:ARP:1,2015-08-01T12:30:00Z,28.4330,-82.6670,-0.104,1111122 
COMPS,ioos:station:USF.COMPS:ARP:1,2015-08-01T12:36:00Z,28.4330,-82.6670,-0.115,1111122 
COMPS,ioos:station:USF.COMPS:ARP:1,2015-08-01T12:42:00Z,28.4330,-82.6670,-0.126,1111122 
COMPS,ioos:station:USF.COMPS:ARP:1,2015-08-01T12:48:00Z,28.4330,-82.6670,-0.133,1111122 
COMPS,ioos:station:USF.COMPS:ARP:1,2015-08-01T12:54:00Z,28.4330,-82.6670,-0.139,1111122 
COMPS,ioos:station:USF.COMPS:ARP:1,2015-08-01T13:00:00Z,28.4330,-82.6670,-0.139,1111122 
COMPS,ioos:station:USF.COMPS:ARP:1,2015-08-01T13:06:00Z,28.4330,-82.6670,-0.137,1111122 
COMPS,ioos:station:USF.COMPS:ARP:1,2015-08-01T13:12:00Z,28.4330,-82.6670,-0.132,1111122 
COMPS,ioos:station:USF.COMPS:ARP:1,2015-08-01T13:18:00Z,28.4330,-82.6670,-0.119,1111122 
COMPS,ioos:station:USF.COMPS:ARP:1,2015-08-01T13:24:00Z,28.4330,-82.6670,-0.104,1111122 
COMPS,ioos:station:USF.COMPS:ARP:1,2015-08-01T13:30:00Z,28.4330,-82.6670,-0.087,1111122 
COMPS,ioos:station:USF.COMPS:ARP:1,2015-08-01T13:36:00Z,28.4330,-82.6670,-0.068,1111122 
COMPS,ioos:station:USF.COMPS:ARP:1,2015-08-01T13:42:00Z,28.4330,-82.6670,-0.05,1111122 
COMPS,ioos:station:USF.COMPS:ARP:1,2015-08-01T13:48:00Z,28.4330,-82.6670,-0.033,1111122 
COMPS,ioos:station:USF.COMPS:ARP:1,2015-08-01T13:54:00Z,28.4330,-82.6670,-0.018,1111122 
COMPS,ioos:station:USF.COMPS:ARP:1,2015-08-01T14:00:00Z,28.4330,-82.6670,-0.004,1111122 
COMPS,ioos:station:USF.COMPS:ARP:1,2015-08-01T14:06:00Z,28.4330,-82.6670,0.008,1111122 
COMPS,ioos:station:USF.COMPS:ARP:1,2015-08-01T14:12:00Z,28.4330,-82.6670,0.035,1111122 
COMPS,ioos:station:USF.COMPS:ARP:1,2015-08-01T14:18:00Z,28.4330,-82.6670,0.06,1111122 
COMPS,ioos:station:USF.COMPS:ARP:1,2015-08-01T14:24:00Z,28.4330,-82.6670,0.077,1111122 
COMPS,ioos:station:USF.COMPS:ARP:1,2015-08-01T14:30:00Z,28.4330,-82.6670,0.1,1111122 
COMPS,ioos:station:USF.COMPS:ARP:1,2015-08-01T14:36:00Z,28.4330,-82.6670,0.124,1111122 
COMPS,ioos:station:USF.COMPS:ARP:1,2015-08-01T14:42:00Z,28.4330,-82.6670,0.151,1111122 
COMPS,ioos:station:USF.COMPS:ARP:1,2015-08-01T14:48:00Z,28.4330,-82.6670,0.177,1111122 
COMPS,ioos:station:USF.COMPS:ARP:1,2015-08-01T14:54:00Z,28.4330,-82.6670,0.201,1111122 
COMPS,ioos:station:USF.COMPS:ARP:1,2015-08-01T15:00:00Z,28.4330,-82.6670,0.22,1111122 
COMPS,ioos:station:USF.COMPS:ARP:1,2015-08-01T15:06:00Z,28.4330,-82.6670,0.243,1111122 
COMPS,ioos:station:USF.COMPS:ARP:1,2015-08-01T15:12:00Z,28.4330,-82.6670,0.257,1111122 
COMPS,ioos:station:USF.COMPS:ARP:1,2015-08-01T15:18:00Z,28.4330,-82.6670,0.274,1111122 
COMPS,ioos:station:USF.COMPS:ARP:1,2015-08-01T15:24:00Z,28.4330,-82.6670,0.292,1111122 
COMPS,ioos:station:USF.COMPS:ARP:1,2015-08-01T15:30:00Z,28.4330,-82.6670,0.314,1111122 
COMPS,ioos:station:USF.COMPS:ARP:1,2015-08-01T15:36:00Z,28.4330,-82.6670,0.335,1111122 
COMPS,ioos:station:USF.COMPS:ARP:1,2015-08-01T15:42:00Z,28.4330,-82.6670,0.354,1111122 
COMPS,ioos:station:USF.COMPS:ARP:1,2015-08-01T15:48:00Z,28.4330,-82.6670,0.375,1111122 
COMPS,ioos:station:USF.COMPS:ARP:1,2015-08-01T15:54:00Z,28.4330,-82.6670,0.395,1111122 
COMPS,ioos:station:USF.COMPS:ARP:1,2015-08-01T16:00:00Z,28.4330,-82.6670,0.421,1111122 
COMPS,ioos:station:USF.COMPS:ARP:1,2015-08-01T16:06:00Z,28.4330,-82.6670,0.444,1111122 
COMPS,ioos:station:USF.COMPS:ARP:1,2015-08-01T16:12:00Z,28.4330,-82.6670,0.465,1111122 
COMPS,ioos:station:USF.COMPS:ARP:1,2015-08-01T16:18:00Z,28.4330,-82.6670,0.488,1111122 
COMPS,ioos:station:USF.COMPS:ARP:1,2015-08-01T16:24:00Z,28.4330,-82.6670,0.513,1111122 
COMPS,ioos:station:USF.COMPS:ARP:1,2015-08-01T16:30:00Z,28.4330,-82.6670,0.541,1111122 
COMPS,ioos:station:USF.COMPS:ARP:1,2015-08-01T16:36:00Z,28.4330,-82.6670,0.567,1111122 
COMPS,ioos:station:USF.COMPS:ARP:1,2015-08-01T16:42:00Z,28.4330,-82.6670,0.595,1111122 
COMPS,ioos:station:USF.COMPS:ARP:1,2015-08-01T16:48:00Z,28.4330,-82.6670,0.621,1111122 
COMPS,ioos:station:USF.COMPS:ARP:1,2015-08-01T16:54:00Z,28.4330,-82.6670,0.647,1111122 
COMPS,ioos:station:USF.COMPS:ARP:1,2015-08-01T17:00:00Z,28.4330,-82.6670,0.674,1111122 
COMPS,ioos:station:USF.COMPS:ARP:1,2015-08-01T17:06:00Z,28.4330,-82.6670,0.699,1111122 
COMPS,ioos:station:USF.COMPS:ARP:1,2015-08-01T17:12:00Z,28.4330,-82.6670,0.723,1111122 
COMPS,ioos:station:USF.COMPS:ARP:1,2015-08-01T17:18:00Z,28.4330,-82.6670,0.746,1111122 
COMPS,ioos:station:USF.COMPS:ARP:1,2015-08-01T17:24:00Z,28.4330,-82.6670,0.773,1111122 
COMPS,ioos:station:USF.COMPS:ARP:1,2015-08-01T17:30:00Z,28.4330,-82.6670,0.793,1111122 
COMPS,ioos:station:USF.COMPS:ARP:1,2015-08-01T17:36:00Z,28.4330,-82.6670,0.811,1111122 
COMPS,ioos:station:USF.COMPS:ARP:1,2015-08-01T17:42:00Z,28.4330,-82.6670,0.825,1111122 
COMPS,ioos:station:USF.COMPS:ARP:1,2015-08-01T17:48:00Z,28.4330,-82.6670,0.834,1111122 
COMPS,ioos:station:USF.COMPS:ARP:1,2015-08-01T17:54:00Z,28.4330,-82.6670,0.844,1111122 
COMPS,ioos:station:USF.COMPS:ARP:1,2015-08-01T18:00:00Z,28.4330,-82.6670,0.851,1111122 
COMPS,ioos:station:USF.COMPS:ARP:1,2015-08-01T18:06:00Z,28.4330,-82.6670,0.86,1111122 
COMPS,ioos:station:USF.COMPS:ARP:1,2015-08-01T18:12:00Z,28.4330,-82.6670,0.867,1111122 
COMPS,ioos:station:USF.COMPS:ARP:1,2015-08-01T18:18:00Z,28.4330,-82.6670,0.873,1111122 
COMPS,ioos:station:USF.COMPS:ARP:1,2015-08-01T18:24:00Z,28.4330,-82.6670,0.894,1111122 
COMPS,ioos:station:USF.COMPS:ARP:1,2015-08-01T18:30:00Z,28.4330,-82.6670,0.908,1111122 
COMPS,ioos:station:USF.COMPS:ARP:1,2015-08-01T18:36:00Z,28.4330,-82.6670,0.915,1111122 
COMPS,ioos:station:USF.COMPS:ARP:1,2015-08-01T18:42:00Z,28.4330,-82.6670,0.923,1111122 
COMPS,ioos:station:USF.COMPS:ARP:1,2015-08-01T18:48:00Z,28.4330,-82.6670,0.91,1111122 
COMPS,ioos:station:USF.COMPS:ARP:1,2015-08-01T18:54:00Z,28.4330,-82.6670,0.945,1111122 
COMPS,ioos:station:USF.COMPS:ARP:1,2015-08-01T19:00:00Z,28.4330,-82.6670,0.941,1111122 
COMPS,ioos:station:USF.COMPS:ARP:1,2015-08-01T19:06:00Z,28.4330,-82.6670,0.98,1111122 
COMPS,ioos:station:USF.COMPS:ARP:1,2015-08-01T19:12:00Z,28.4330,-82.6670,1.008,1111122 
COMPS,ioos:station:USF.COMPS:ARP:1,2015-08-01T19:18:00Z,28.4330,-82.6670,1.049,1111122 
COMPS,ioos:station:USF.COMPS:ARP:1,2015-08-01T19:24:00Z,28.4330,-82.6670,1.081,1111122 
COMPS,ioos:station:USF.COMPS:ARP:1,2015-08-01T19:30:00Z,28.4330,-82.6670,1.089,1111122 
COMPS,ioos:station:USF.COMPS:ARP:1,2015-08-01T19:36:00Z,28.4330,-82.6670,1.073,1111122 
COMPS,ioos:station:USF.COMPS:ARP:1,2015-08-01T19:42:00Z,28.4330,-82.6670,1.033,1111122 
COMPS,ioos:station:USF.COMPS:ARP:1,2015-08-01T19:48:00Z,28.4330,-82.6670,1.015,1111122 
COMPS,ioos:station:USF.COMPS:ARP:1,2015-08-01T19:54:00Z,28.4330,-82.6670,0.985,1111122 
COMPS,ioos:station:USF.COMPS:ARP:1,2015-08-01T20:00:00Z,28.4330,-82.6670,0.95,1111122 
COMPS,ioos:station:USF.COMPS:ARP:1,2015-08-01T20:06:00Z,28.4330,-82.6670,0.907,1111122 
COMPS,ioos:station:USF.COMPS:ARP:1,2015-08-01T20:12:00Z,28.4330,-82.6670,0.881,1111122 
COMPS,ioos:station:USF.COMPS:ARP:1,2015-08-01T20:18:00Z,28.4330,-82.6670,0.85,1111122 
COMPS,ioos:station:USF.COMPS:ARP:1,2015-08-01T20:24:00Z,28.4330,-82.6670,0.831,1111122 
COMPS,ioos:station:USF.COMPS:ARP:1,2015-08-01T20:30:00Z,28.4330,-82.6670,0.808,1111122 
COMPS,ioos:station:USF.COMPS:ARP:1,2015-08-01T20:36:00Z,28.4330,-82.6670,0.792,1111122 
COMPS,ioos:station:USF.COMPS:ARP:1,2015-08-01T20:42:00Z,28.4330,-82.6670,0.784,1111122 
COMPS,ioos:station:USF.COMPS:ARP:1,2015-08-01T20:48:00Z,28.4330,-82.6670,0.766,1111122 
COMPS,ioos:station:USF.COMPS:ARP:1,2015-08-01T20:54:00Z,28.4330,-82.6670,0.745,1111122 
COMPS,ioos:station:USF.COMPS:ARP:1,2015-08-01T21:00:00Z,28.4330,-82.6670,0.707,1111122 
COMPS,ioos:station:USF.COMPS:ARP:1,2015-08-01T21:06:00Z,28.4330,-82.6670,0.667,1111122 
COMPS,ioos:station:USF.COMPS:ARP:1,2015-08-01T21:12:00Z,28.4330,-82.6670,0.631,1111122 
COMPS,ioos:station:USF.COMPS:ARP:1,2015-08-01T21:18:00Z,28.4330,-82.6670,0.596,1111122 
COMPS,ioos:station:USF.COMPS:ARP:1,2015-08-01T21:24:00Z,28.4330,-82.6670,0.564,1111122 
COMPS,ioos:station:USF.COMPS:ARP:1,2015-08-01T21:30:00Z,28.4330,-82.6670,0.534,1111122 
COMPS,ioos:station:USF.COMPS:ARP:1,2015-08-01T21:36:00Z,28.4330,-82.6670,0.502,1111122 
COMPS,ioos:station:USF.COMPS:ARP:1,2015-08-01T21:42:00Z,28.4330,-82.6670,0.475,1111122 
COMPS,ioos:station:USF.COMPS:ARP:1,2015-08-01T21:48:00Z,28.4330,-82.6670,0.447,1111122 
COMPS,ioos:station:USF.COMPS:ARP:1,2015-08-01T21:54:00Z,28.4330,-82.6670,0.417,1111122 
COMPS,ioos:station:USF.COMPS:ARP:1,2015-08-01T22:00:00Z,28.4330,-82.6670,0.39,1111122 
COMPS,ioos:station:USF.COMPS:ARP:1,2015-08-01T22:06:00Z,28.4330,-82.6670,0.365,1111122 
COMPS,ioos:station:USF.COMPS:ARP:1,2015-08-01T22:12:00Z,28.4330,-82.6670,0.341,1111122 
COMPS,ioos:station:USF.COMPS:ARP:1,2015-08-01T22:18:00Z,28.4330,-82.6670,0.315,1111122 
COMPS,ioos:station:USF.COMPS:ARP:1,2015-08-01T22:24:00Z,28.4330,-82.6670,0.291,1111122 
COMPS,ioos:station:USF.COMPS:ARP:1,2015-08-01T22:30:00Z,28.4330,-82.6670,0.267,1111122 
COMPS,ioos:station:USF.COMPS:ARP:1,2015-08-01T22:36:00Z,28.4330,-82.6670,0.246,1111122 
COMPS,ioos:station:USF.COMPS:ARP:1,2015-08-01T22:42:00Z,28.4330,-82.6670,0.223,1111122 
COMPS,ioos:station:USF.COMPS:ARP:1,2015-08-01T22:48:00Z,28.4330,-82.6670,0.199,1111122 
COMPS,ioos:station:USF.COMPS:ARP:1,2015-08-01T22:54:00Z,28.4330,-82.6670,0.175,1111122 
COMPS,ioos:station:USF.COMPS:ARP:1,2015-08-01T23:00:00Z,28.4330,-82.6670,0.15,1111122 
COMPS,ioos:station:USF.COMPS:ARP:1,2015-08-01T23:06:00Z,28.4330,-82.6670,0.126,1111122 
COMPS,ioos:station:USF.COMPS:ARP:1,2015-08-01T23:12:00Z,28.4330,-82.6670,0.108,1111122 
COMPS,ioos:station:USF.COMPS:ARP:1,2015-08-01T23:18:00Z,28.4330,-82.6670,0.092,1111122 
COMPS,ioos:station:USF.COMPS:ARP:1,2015-08-01T23:24:00Z,28.4330,-82.6670,0.075,1111122 
COMPS,ioos:station:USF.COMPS:ARP:1,2015-08-01T23:30:00Z,28.4330,-82.6670,0.053,1111122 
COMPS,ioos:station:USF.COMPS:ARP:1,2015-08-01T23:36:00Z,28.4330,-82.6670,0.03,1111122 
COMPS,ioos:station:USF.COMPS:ARP:1,2015-08-01T23:42:00Z,28.4330,-82.6670,0.01,1111122 
COMPS,ioos:station:USF.COMPS:ARP:1,2015-08-01T23:48:00Z,28.4330,-82.6670,-0.012,1111122 
COMPS,ioos:station:USF.COMPS:ARP:1,2015-08-01T23:54:00Z,28.4330,-82.6670,-0.031,1111122 
COMPS,ioos:station:USF.COMPS:ARP:1,2015-08-02T00:00:00Z,28.4330,-82.6670,-0.052,1111122 
COMPS,ioos:station:USF.COMPS:ARP:1,2015-08-02T00:06:00Z,28.4330,-82.6670,-0.074,1111122 
COMPS,ioos:station:USF.COMPS:ARP:1,2015-08-02T00:12:00Z,28.4330,-82.6670,-0.094,1111122 
COMPS,ioos:station:USF.COMPS:ARP:1,2015-08-02T00:18:00Z,28.4330,-82.6670,-0.113,1111122 
COMPS,ioos:station:USF.COMPS:ARP:1,2015-08-02T00:24:00Z,28.4330,-82.6670,-0.131,1111122 
COMPS,ioos:station:USF.COMPS:ARP:1,2015-08-02T00:30:00Z,28.4330,-82.6670,-0.149,1111122 
COMPS,ioos:station:USF.COMPS:ARP:1,2015-08-02T00:36:00Z,28.4330,-82.6670,-0.167,1111122 
COMPS,ioos:station:USF.COMPS:ARP:1,2015-08-02T00:42:00Z,28.4330,-82.6670,-0.183,1111122 
COMPS,ioos:station:USF.COMPS:ARP:1,2015-08-02T00:48:00Z,28.4330,-82.6670,-0.199,1111122 
COMPS,ioos:station:USF.COMPS:ARP:1,2015-08-02T00:54:00Z,28.4330,-82.6670,-0.214,1111122 
COMPS,ioos:station:USF.COMPS:ARP:1,2015-08-02T01:00:00Z,28.4330,-82.6670,-0.228,1111122 
COMPS,ioos:station:USF.COMPS:ARP:1,2015-08-02T01:06:00Z,28.4330,-82.6670,-0.242,1111122 
COMPS,ioos:station:USF.COMPS:ARP:1,2015-08-02T01:12:00Z,28.4330,-82.6670,-0.254,1111122 
COMPS,ioos:station:USF.COMPS:ARP:1,2015-08-02T01:18:00Z,28.4330,-82.6670,-0.265,1111122 
COMPS,ioos:station:USF.COMPS:ARP:1,2015-08-02T01:24:00Z,28.4330,-82.6670,-0.278,1111122 
COMPS,ioos:station:USF.COMPS:ARP:1,2015-08-02T01:30:00Z,28.4330,-82.6670,-0.29,1111122 
COMPS,ioos:station:USF.COMPS:ARP:1,2015-08-02T01:36:00Z,28.4330,-82.6670,-0.3,1111122 
COMPS,ioos:station:USF.COMPS:ARP:1,2015-08-02T01:42:00Z,28.4330,-82.6670,-0.309,1111122 
COMPS,ioos:station:USF.COMPS:ARP:1,2015-08-02T01:48:00Z,28.4330,-82.6670,-0.317,1111122 
COMPS,ioos:station:USF.COMPS:ARP:1,2015-08-02T01:54:00Z,28.4330,-82.6670,-0.326,1111122 
COMPS,ioos:station:USF.COMPS:ARP:1,2015-08-02T02:00:00Z,28.4330,-82.6670,-0.335,1111122 
COMPS,ioos:station:USF.COMPS:ARP:1,2015-08-02T02:06:00Z,28.4330,-82.6670,-0.342,1111122 
COMPS,ioos:station:USF.COMPS:ARP:1,2015-08-02T02:12:00Z,28.4330,-82.6670,-0.349,1111122 
COMPS,ioos:station:USF.COMPS:ARP:1,2015-08-02T02:18:00Z,28.4330,-82.6670,-0.355,1111122 
COMPS,ioos:station:USF.COMPS:ARP:1,2015-08-02T02:24:00Z,28.4330,-82.6670,-0.36,1111122 
COMPS,ioos:station:USF.COMPS:ARP:1,2015-08-02T02:30:00Z,28.4330,-82.6670,-0.363,1111122 
COMPS,ioos:station:USF.COMPS:ARP:1,2015-08-02T02:36:00Z,28.4330,-82.6670,-0.358,1111122 
COMPS,ioos:station:USF.COMPS:ARP:1,2015-08-02T02:42:00Z,28.4330,-82.6670,-0.352,1111122 
COMPS,ioos:station:USF.COMPS:ARP:1,2015-08-02T02:48:00Z,28.4330,-82.6670,-0.346,1111122 
COMPS,ioos:station:USF.COMPS:ARP:1,2015-08-02T02:54:00Z,28.4330,-82.6670,-0.338,1111122 
COMPS,ioos:station:USF.COMPS:ARP:1,2015-08-02T03:00:00Z,28.4330,-82.6670,-0.329,1111122 